Climatologie pour Saint-Brevin les Pins
Jour • Résumé pour juin 19, 2017 Système :  Métrique    Anglais   Mixte
« - 1 jour
+ 1 jour »
Jour Semaine Mois Année Personnalisé
  Maximum : Minimum : Moyenne :
Température sous abri : 32.7 °C 18.6 °C 24.8 °C
Point de rosée : 20.9 °C 15.4 °C 18 °C
Humidité : 88 % 46 % 67 %
Vitesse du vent : 16.1 km/h 0.0 km/h 4.7 km/h
Rafale : 20.9 km/h - -
Direction :- - SSE
Pression : 1016.5 hPa 1013.4 hPa -
Précipitations : 0.0 mm    
Historical Graphs
 
 
Tableau de données pour juin 19, 2017
Heure Tempé Pt rosée Pression Vent Vitesse Rafale Humidité Taux pluie (/hr) Soleil
00:00 23.8 °C 16.6 °C 1016.5 hPa ESE 1.6 km/h 11.3 km/h 64 % 0.0 mm 0 W/m2
00:05 23.6 °C 16.6 °C 1016.5 hPa Calm   11.3 km/h 65 % 0.0 mm 0 W/m2
00:10 23.4 °C 16.5 °C 1016.5 hPa ENE 3.2 km/h 11.3 km/h 65 % 0.0 mm 0 W/m2
00:15 23.4 °C 16.2 °C 1016.5 hPa ENE 1.6 km/h 11.3 km/h 64 % 0.0 mm 0 W/m2
00:20 23.3 °C 16.1 °C 1016.5 hPa ESE 11.3 km/h 11.3 km/h 64 % 0.0 mm 0 W/m2
00:25 23.3 °C 16.1 °C 1016.5 hPa East 6.4 km/h 12.9 km/h 64 % 0.0 mm 0 W/m2
00:30 23.3 °C 16.1 °C 1016.5 hPa East 3.2 km/h 12.9 km/h 64 % 0.0 mm 0 W/m2
00:35 23.2 °C 16.2 °C 1016.5 hPa East 3.2 km/h 11.3 km/h 65 % 0.0 mm 0 W/m2
00:40 23.1 °C 16.2 °C 1016.5 hPa East 4.8 km/h 11.3 km/h 65 % 0.0 mm 0 W/m2
00:45 23.1 °C 16.1 °C 1016.5 hPa East 3.2 km/h 11.3 km/h 65 % 0.0 mm 0 W/m2
00:50 22.9 °C 16.0 °C 1016.5 hPa ENE 4.8 km/h 11.3 km/h 65 % 0.0 mm 0 W/m2
00:55 22.9 °C 16.0 °C 1016.5 hPa East 4.8 km/h 9.7 km/h 65 % 0.0 mm 0 W/m2
01:00 22.8 °C 16.1 °C 1016.5 hPa East 4.8 km/h 8.0 km/h 66 % 0.0 mm 0 W/m2
01:10 22.5 °C 16.1 °C 1016.1 hPa ENE 1.6 km/h 9.7 km/h 67 % 0.0 mm 0 W/m2
01:15 22.4 °C 16.0 °C 1016.1 hPa East 3.2 km/h 9.7 km/h 67 % 0.0 mm 0 W/m2
01:20 22.3 °C 15.9 °C 1016.5 hPa ENE 3.2 km/h 8.0 km/h 67 % 0.0 mm 0 W/m2
01:25 22.3 °C 15.9 °C 1016.1 hPa East 3.2 km/h 9.7 km/h 67 % 0.0 mm 0 W/m2
01:30 22.4 °C 16.0 °C 1016.5 hPa East 4.8 km/h 9.7 km/h 67 % 0.0 mm 0 W/m2
01:35 22.3 °C 16.1 °C 1016.1 hPa East 1.6 km/h 11.3 km/h 68 % 0.0 mm 0 W/m2
01:40 22.2 °C 16.0 °C 1016.1 hPa ENE 3.2 km/h 11.3 km/h 68 % 0.0 mm 0 W/m2
01:45 22.3 °C 16.1 °C 1016.1 hPa East 1.6 km/h 9.7 km/h 68 % 0.0 mm 0 W/m2
01:50 22.2 °C 16.0 °C 1016.1 hPa East 3.2 km/h 9.7 km/h 68 % 0.0 mm 0 W/m2
01:55 22.2 °C 16.0 °C 1016.1 hPa East 1.6 km/h 9.7 km/h 68 % 0.0 mm 0 W/m2
02:00 22.1 °C 15.9 °C 1016.1 hPa East 9.7 km/h 9.7 km/h 68 % 0.0 mm 0 W/m2
02:05 22.0 °C 16.0 °C 1016.1 hPa East 4.8 km/h 11.3 km/h 69 % 0.0 mm 0 W/m2
02:10 21.9 °C 16.2 °C 1016.1 hPa East 1.6 km/h 11.3 km/h 70 % 0.0 mm 0 W/m2
02:15 21.7 °C 16.0 °C 1016.1 hPa East 3.2 km/h 8.0 km/h 70 % 0.0 mm 0 W/m2
02:20 21.7 °C 16.0 °C 1016.1 hPa Calm   9.7 km/h 70 % 0.0 mm 0 W/m2
02:25 21.6 °C 16.1 °C 1016.1 hPa Calm   9.7 km/h 71 % 0.0 mm 0 W/m2
02:30 21.6 °C 16.1 °C 1015.8 hPa Calm   9.7 km/h 71 % 0.0 mm 0 W/m2
02:35 21.4 °C 16.1 °C 1016.1 hPa East 3.2 km/h 9.7 km/h 72 % 0.0 mm 0 W/m2
02:40 21.3 °C 16.0 °C 1016.1 hPa ENE 4.8 km/h 8.0 km/h 72 % 0.0 mm 0 W/m2
02:45 21.2 °C 16.0 °C 1016.1 hPa East 9.7 km/h 9.7 km/h 72 % 0.0 mm 0 W/m2
02:50 21.1 °C 16.0 °C 1016.1 hPa East 1.6 km/h 9.7 km/h 73 % 0.0 mm 0 W/m2
02:55 21.0 °C 16.0 °C 1016.1 hPa ENE 3.2 km/h 9.7 km/h 73 % 0.0 mm 0 W/m2
03:00 20.8 °C 16.0 °C 1016.1 hPa East 1.6 km/h 9.7 km/h 74 % 0.0 mm 0 W/m2
03:05 20.8 °C 16.0 °C 1016.1 hPa East 3.2 km/h 8.0 km/h 74 % 0.0 mm 0 W/m2
03:10 20.7 °C 16.1 °C 1015.8 hPa ENE 4.8 km/h 4.8 km/h 75 % 0.0 mm 0 W/m2
03:15 20.5 °C 15.9 °C 1015.8 hPa ENE 3.2 km/h 6.4 km/h 75 % 0.0 mm 0 W/m2
03:20 20.5 °C 15.9 °C 1015.8 hPa Calm   6.4 km/h 75 % 0.0 mm 0 W/m2
03:25 20.4 °C 16.0 °C 1015.8 hPa East 3.2 km/h 8.0 km/h 76 % 0.0 mm 0 W/m2
03:30 20.3 °C 15.9 °C 1015.8 hPa ENE 3.2 km/h 8.0 km/h 76 % 0.0 mm 0 W/m2
03:35 20.1 °C 16.0 °C 1015.8 hPa East 4.8 km/h 8.0 km/h 77 % 0.0 mm 0 W/m2
03:40 20.1 °C 15.9 °C 1015.8 hPa ENE 3.2 km/h 8.0 km/h 77 % 0.0 mm 0 W/m2
03:45 19.7 °C 15.8 °C 1015.8 hPa ENE 4.8 km/h 6.4 km/h 78 % 0.0 mm 0 W/m2
03:50 19.6 °C 15.9 °C 1015.8 hPa ENE 8.0 km/h 8.0 km/h 79 % 0.0 mm 0 W/m2
03:55 19.8 °C 15.9 °C 1015.8 hPa ENE 4.8 km/h 11.3 km/h 78 % 0.0 mm 0 W/m2
04:00 19.9 °C 15.7 °C 1015.8 hPa ENE 3.2 km/h 11.3 km/h 77 % 0.0 mm 0 W/m2
04:05 19.9 °C 15.8 °C 1015.8 hPa East 4.8 km/h 11.3 km/h 77 % 0.0 mm 0 W/m2
04:10 19.9 °C 15.7 °C 1015.8 hPa ENE 6.4 km/h 11.3 km/h 77 % 0.0 mm 0 W/m2
04:15 19.9 °C 15.7 °C 1015.5 hPa East 1.6 km/h 11.3 km/h 77 % 0.0 mm 0 W/m2
04:25 19.8 °C 15.7 °C 1015.8 hPa ENE 4.8 km/h 8.0 km/h 77 % 0.0 mm 0 W/m2
04:30 19.8 °C 15.7 °C 1015.5 hPa ENE 4.8 km/h 9.7 km/h 77 % 0.0 mm 0 W/m2
04:35 19.8 °C 15.8 °C 1015.5 hPa East 4.8 km/h 9.7 km/h 78 % 0.0 mm 0 W/m2
04:40 19.8 °C 15.8 °C 1015.5 hPa East 3.2 km/h 8.0 km/h 78 % 0.0 mm 0 W/m2
04:45 19.7 °C 15.7 °C 1015.5 hPa East 3.2 km/h 8.0 km/h 78 % 0.0 mm 0 W/m2
04:50 19.6 °C 15.7 °C 1015.5 hPa ENE 3.2 km/h 8.0 km/h 78 % 0.0 mm 0 W/m2
04:55 19.5 °C 15.6 °C 1015.5 hPa East 4.8 km/h 8.0 km/h 78 % 0.0 mm 0 W/m2
05:00 19.3 °C 15.5 °C 1015.5 hPa ENE 3.2 km/h 8.0 km/h 79 % 0.0 mm 0 W/m2
05:05 18.9 °C 15.4 °C 1015.5 hPa ENE 6.4 km/h 8.0 km/h 80 % 0.0 mm 0 W/m2
05:10 18.8 °C 15.4 °C 1015.5 hPa ENE 3.2 km/h 8.0 km/h 81 % 0.0 mm 0 W/m2
05:15 18.6 °C 15.4 °C 1015.1 hPa East 4.8 km/h 9.7 km/h 82 % 0.0 mm 0 W/m2
05:20 18.8 °C 15.6 °C 1015.1 hPa East 3.2 km/h 11.3 km/h 82 % 0.0 mm 0 W/m2
05:25 19.0 °C 15.7 °C 1015.1 hPa East 6.4 km/h 11.3 km/h 81 % 0.0 mm 0 W/m2
05:30 19.2 °C 15.6 °C 1015.1 hPa ENE 4.8 km/h 12.9 km/h 80 % 0.0 mm 0 W/m2
05:35 19.2 °C 15.7 °C 1015.1 hPa ENE 6.4 km/h 12.9 km/h 80 % 0.0 mm 0 W/m2
05:40 19.2 °C 15.7 °C 1015.1 hPa ENE 4.8 km/h 11.3 km/h 80 % 0.0 mm 0 W/m2
05:45 19.2 °C 15.7 °C 1015.1 hPa ENE 4.8 km/h 12.9 km/h 80 % 0.0 mm 0 W/m2
05:50 19.1 °C 15.6 °C 1015.1 hPa ENE 4.8 km/h 14.5 km/h 80 % 0.0 mm 0 W/m2
05:55 19.1 °C 15.5 °C 1014.8 hPa Calm   14.5 km/h 80 % 0.0 mm 0 W/m2
06:00 18.9 °C 15.4 °C 1014.8 hPa NE 6.4 km/h 11.3 km/h 80 % 0.0 mm 0 W/m2
06:05 18.8 °C 15.5 °C 1014.8 hPa East 8.0 km/h 12.9 km/h 81 % 0.0 mm 5 W/m2
06:10 18.8 °C 15.4 °C 1014.8 hPa East 3.2 km/h 12.9 km/h 81 % 0.0 mm 5 W/m2
06:15 18.8 °C 15.5 °C 1014.8 hPa NE 1.6 km/h 12.9 km/h 81 % 0.0 mm 5 W/m2
06:20 18.8 °C 15.6 °C 1014.8 hPa ENE 4.8 km/h 12.9 km/h 82 % 0.0 mm 7 W/m2
06:25 18.8 °C 15.6 °C 1014.8 hPa East 4.8 km/h 11.3 km/h 82 % 0.0 mm 11 W/m2
06:30 18.7 °C 15.6 °C 1014.8 hPa East 8.0 km/h 11.3 km/h 82 % 0.0 mm 14 W/m2
06:35 18.8 °C 15.6 °C 1014.8 hPa ENE 3.2 km/h 11.3 km/h 82 % 0.0 mm 18 W/m2
06:40 18.7 °C 15.6 °C 1014.8 hPa ENE 1.6 km/h 12.9 km/h 82 % 0.0 mm 21 W/m2
06:45 18.8 °C 15.7 °C 1014.8 hPa ENE 6.4 km/h 12.9 km/h 82 % 0.0 mm 25 W/m2
06:50 18.9 °C 15.7 °C 1014.8 hPa East 6.4 km/h 12.9 km/h 82 % 0.0 mm 26 W/m2
06:55 19.1 °C 15.8 °C 1014.8 hPa East 4.8 km/h 12.9 km/h 81 % 0.0 mm 28 W/m2
07:00 19.3 °C 15.9 °C 1014.8 hPa East 6.4 km/h 12.9 km/h 81 % 0.0 mm 32 W/m2
07:05 19.3 °C 15.8 °C 1014.8 hPa East 4.8 km/h 11.3 km/h 80 % 0.0 mm 35 W/m2
07:10 19.4 °C 15.9 °C 1014.8 hPa ENE 8.0 km/h 11.3 km/h 80 % 0.0 mm 37 W/m2
07:15 19.5 °C 16.0 °C 1014.8 hPa East 6.4 km/h 11.3 km/h 80 % 0.0 mm 40 W/m2
07:20 19.6 °C 16.0 °C 1014.8 hPa ENE 4.8 km/h 11.3 km/h 80 % 0.0 mm 44 W/m2
07:25 19.7 °C 16.1 °C 1014.8 hPa ENE 4.8 km/h 11.3 km/h 80 % 0.0 mm 46 W/m2
07:30 19.8 °C 16.2 °C 1014.8 hPa ENE 4.8 km/h 11.3 km/h 80 % 0.0 mm 47 W/m2
07:35 19.9 °C 16.3 °C 1014.8 hPa East 6.4 km/h 11.3 km/h 80 % 0.0 mm 49 W/m2
07:40 19.9 °C 16.4 °C 1014.8 hPa East 1.6 km/h 11.3 km/h 80 % 0.0 mm 51 W/m2
07:45 20.1 °C 16.3 °C 1014.8 hPa East 1.6 km/h 9.7 km/h 79 % 0.0 mm 51 W/m2
07:50 20.2 °C 16.4 °C 1014.8 hPa ENE 6.4 km/h 11.3 km/h 79 % 0.0 mm 123 W/m2
07:55 20.3 °C 16.6 °C 1015.1 hPa NE 6.4 km/h 11.3 km/h 79 % 0.0 mm 155 W/m2
08:00 20.5 °C 16.5 °C 1014.8 hPa East 1.6 km/h 11.3 km/h 78 % 0.0 mm 176 W/m2
08:05 20.8 °C 16.8 °C 1015.1 hPa East 1.6 km/h 11.3 km/h 78 % 0.0 mm 192 W/m2
08:10 20.9 °C 16.8 °C 1015.1 hPa ENE 4.8 km/h 11.3 km/h 77 % 0.0 mm 197 W/m2
08:15 21.1 °C 16.9 °C 1015.1 hPa East 9.7 km/h 12.9 km/h 77 % 0.0 mm 211 W/m2
08:20 21.3 °C 16.9 °C 1015.1 hPa ENE 6.4 km/h 12.9 km/h 76 % 0.0 mm 225 W/m2
08:25 21.7 °C 17.0 °C 1015.1 hPa East 3.2 km/h 12.9 km/h 75 % 0.0 mm 258 W/m2
08:30 21.9 °C 17.3 °C 1015.1 hPa East 3.2 km/h 12.9 km/h 75 % 0.0 mm 279 W/m2
08:35 22.1 °C 17.5 °C 1015.1 hPa ESE 3.2 km/h 8.0 km/h 75 % 0.0 mm 297 W/m2
08:40 22.3 °C 17.3 °C 1015.1 hPa East 6.4 km/h 17.7 km/h 73 % 0.0 mm 315 W/m2
08:45 22.7 °C 17.6 °C 1015.1 hPa ENE 6.4 km/h 17.7 km/h 73 % 0.0 mm 325 W/m2
08:50 22.8 °C 17.5 °C 1015.1 hPa ESE 8.0 km/h 14.5 km/h 72 % 0.0 mm 341 W/m2
08:55 23.2 °C 17.4 °C 1015.1 hPa East 9.7 km/h 14.5 km/h 70 % 0.0 mm 357 W/m2
09:00 23.4 °C 17.6 °C 1015.1 hPa East 3.2 km/h 17.7 km/h 70 % 0.0 mm 373 W/m2
09:05 23.6 °C 17.5 °C 1015.1 hPa ENE 1.6 km/h 17.7 km/h 69 % 0.0 mm 388 W/m2
09:10 23.9 °C 17.9 °C 1015.1 hPa SE 8.0 km/h 14.5 km/h 69 % 0.0 mm 403 W/m2
09:15 24.1 °C 18.1 °C 1015.1 hPa East 9.7 km/h 14.5 km/h 69 % 0.0 mm 417 W/m2
09:20 24.2 °C 17.7 °C 1015.1 hPa ESE 8.0 km/h 12.9 km/h 67 % 0.0 mm 431 W/m2
09:25 24.4 °C 17.9 °C 1015.1 hPa NNE 1.6 km/h 14.5 km/h 67 % 0.0 mm 443 W/m2
09:30 24.7 °C 18.2 °C 1014.8 hPa ESE 6.4 km/h 14.5 km/h 67 % 0.0 mm 455 W/m2
09:35 24.8 °C 17.8 °C 1015.1 hPa ENE 4.8 km/h 17.7 km/h 65 % 0.0 mm 469 W/m2
09:40 25.0 °C 18.2 °C 1015.1 hPa ENE 6.4 km/h 17.7 km/h 66 % 0.0 mm 483 W/m2
09:45 25.3 °C 18.3 °C 1014.8 hPa East 4.8 km/h 14.5 km/h 65 % 0.0 mm 497 W/m2
09:50 25.4 °C 17.9 °C 1014.8 hPa SE 8.0 km/h 14.5 km/h 63 % 0.0 mm 512 W/m2
09:55 25.6 °C 18.0 °C 1014.8 hPa SSE 8.0 km/h 14.5 km/h 63 % 0.0 mm 526 W/m2
10:00 25.9 °C 18.3 °C 1014.8 hPa Calm   14.5 km/h 63 % 0.0 mm 534 W/m2
10:05 26.1 °C 18.5 °C 1014.8 hPa East 3.2 km/h 14.5 km/h 63 % 0.0 mm 547 W/m2
10:10 26.2 °C 18.3 °C 1014.8 hPa East 8.0 km/h 14.5 km/h 62 % 0.0 mm 561 W/m2
10:15 26.3 °C 18.4 °C 1014.8 hPa East 8.0 km/h 14.5 km/h 62 % 0.0 mm 573 W/m2
10:20 26.4 °C 18.8 °C 1014.8 hPa ESE 4.8 km/h 12.9 km/h 63 % 0.0 mm 587 W/m2
10:25 26.6 °C 18.7 °C 1014.8 hPa NE 8.0 km/h 12.9 km/h 62 % 0.0 mm 599 W/m2
10:30 26.9 °C 18.5 °C 1014.8 hPa ESE 8.0 km/h 14.5 km/h 60 % 0.0 mm 613 W/m2
10:35 26.9 °C 19.0 °C 1014.8 hPa Calm   14.5 km/h 62 % 0.0 mm 624 W/m2
10:40 27.2 °C 18.5 °C 1014.8 hPa ESE 3.2 km/h 12.9 km/h 59 % 0.0 mm 636 W/m2
10:45 27.2 °C 18.5 °C 1014.8 hPa SSE 4.8 km/h 12.9 km/h 59 % 0.0 mm 649 W/m2
10:50 27.6 °C 19.1 °C 1014.8 hPa ESE 8.0 km/h 12.9 km/h 60 % 0.0 mm 661 W/m2
10:55 27.8 °C 19.0 °C 1014.8 hPa ESE 4.8 km/h 12.9 km/h 59 % 0.0 mm 671 W/m2
11:00 28.2 °C 19.7 °C 1014.8 hPa ESE 6.4 km/h 14.5 km/h 60 % 0.0 mm 687 W/m2
11:05 28.2 °C 19.2 °C 1014.8 hPa Calm   14.5 km/h 58 % 0.0 mm 698 W/m2
11:10 28.4 °C 19.0 °C 1014.8 hPa ENE 3.2 km/h 12.9 km/h 57 % 0.0 mm 708 W/m2
11:15 28.6 °C 19.0 °C 1014.8 hPa SE 8.0 km/h 12.9 km/h 56 % 0.0 mm 721 W/m2
11:20 28.6 °C 18.6 °C 1014.8 hPa SSE 3.2 km/h 12.9 km/h 55 % 0.0 mm 729 W/m2
11:25 28.6 °C 18.6 °C 1014.8 hPa SE 1.6 km/h 12.9 km/h 55 % 0.0 mm 738 W/m2
11:30 29.1 °C 19.1 °C 1014.8 hPa Calm   12.9 km/h 55 % 0.0 mm 749 W/m2
11:35 29.1 °C 19.1 °C 1014.8 hPa ENE 4.8 km/h 11.3 km/h 55 % 0.0 mm 758 W/m2
11:40 29.2 °C 19.0 °C 1014.8 hPa East 3.2 km/h 9.7 km/h 54 % 0.0 mm 766 W/m2
11:45 29.7 °C 19.4 °C 1014.8 hPa East 4.8 km/h 11.3 km/h 54 % 0.0 mm 775 W/m2
11:50 29.5 °C 20.1 °C 1014.8 hPa NE 1.6 km/h 11.3 km/h 57 % 0.0 mm 784 W/m2
11:55 29.7 °C 19.1 °C 1014.8 hPa East 4.8 km/h 12.9 km/h 53 % 0.0 mm 796 W/m2
12:00 29.8 °C 18.9 °C 1014.8 hPa Calm   12.9 km/h 52 % 0.0 mm 805 W/m2
12:05 30.3 °C 20.3 °C 1014.8 hPa South 4.8 km/h 11.3 km/h 55 % 0.0 mm 812 W/m2
12:10 30.0 °C 19.1 °C 1014.8 hPa ESE 6.4 km/h 11.3 km/h 52 % 0.0 mm 817 W/m2
12:15 30.3 °C 19.3 °C 1014.8 hPa SSE 6.4 km/h 12.9 km/h 52 % 0.0 mm 823 W/m2
12:20 30.4 °C 19.4 °C 1014.8 hPa South 8.0 km/h 12.9 km/h 52 % 0.0 mm 828 W/m2
12:25 30.4 °C 18.8 °C 1014.8 hPa ESE 8.0 km/h 14.5 km/h 50 % 0.0 mm 837 W/m2
12:30 30.4 °C 19.2 °C 1014.8 hPa SE 9.7 km/h 14.5 km/h 51 % 0.0 mm 838 W/m2
12:35 30.7 °C 20.0 °C 1014.4 hPa NE 3.2 km/h 12.9 km/h 53 % 0.0 mm 844 W/m2
12:40 30.9 °C 19.6 °C 1014.4 hPa ESE 3.2 km/h 11.3 km/h 51 % 0.0 mm 854 W/m2
12:45 30.9 °C 19.3 °C 1014.4 hPa ENE 8.0 km/h 9.7 km/h 50 % 0.0 mm 860 W/m2
12:50 31.3 °C 19.3 °C 1014.4 hPa ESE 4.8 km/h 12.9 km/h 49 % 0.0 mm 865 W/m2
12:55 31.2 °C 18.9 °C 1014.4 hPa Calm   12.9 km/h 48 % 0.0 mm 868 W/m2
13:00 31.3 °C 19.6 °C 1014.4 hPa ESE 4.8 km/h 11.3 km/h 50 % 0.0 mm 875 W/m2
13:05 31.6 °C 19.9 °C 1014.4 hPa ENE 6.4 km/h 14.5 km/h 50 % 0.0 mm 879 W/m2
13:10 31.6 °C 20.2 °C 1014.4 hPa South 4.8 km/h 14.5 km/h 51 % 0.0 mm 881 W/m2
13:15 31.6 °C 19.5 °C 1014.4 hPa NE 4.8 km/h 11.3 km/h 49 % 0.0 mm 882 W/m2
13:20 31.8 °C 20.4 °C 1014.4 hPa Calm   11.3 km/h 51 % 0.0 mm 888 W/m2
13:25 32.7 °C 19.6 °C 1014.4 hPa ENE 3.2 km/h 8.0 km/h 46 % 0.0 mm 891 W/m2
13:30 32.3 °C 19.9 °C 1014.4 hPa South 6.4 km/h 11.3 km/h 48 % 0.0 mm 893 W/m2
13:35 32.1 °C 19.7 °C 1014.4 hPa SSW 1.6 km/h 14.5 km/h 48 % 0.0 mm 893 W/m2
13:40 31.7 °C 20.0 °C 1014.4 hPa ENE 6.4 km/h 14.5 km/h 50 % 0.0 mm 898 W/m2
13:45 32.0 °C 19.6 °C 1014.1 hPa WSW 4.8 km/h 8.0 km/h 48 % 0.0 mm 895 W/m2
13:50 31.6 °C 20.2 °C 1014.4 hPa West 4.8 km/h 8.0 km/h 51 % 0.0 mm 896 W/m2
13:55 31.9 °C 19.5 °C 1014.4 hPa WSW 11.3 km/h 11.3 km/h 48 % 0.0 mm 900 W/m2
14:00 31.7 °C 19.7 °C 1014.1 hPa SW 4.8 km/h 12.9 km/h 49 % 0.0 mm 902 W/m2
14:05 31.6 °C 20.9 °C 1014.1 hPa West 9.7 km/h 12.9 km/h 53 % 0.0 mm 898 W/m2
14:10 31.7 °C 20.0 °C 1014.1 hPa WSW 9.7 km/h 12.9 km/h 50 % 0.0 mm 896 W/m2
14:15 31.3 °C 19.7 °C 1014.1 hPa WSW 8.0 km/h 12.9 km/h 50 % 0.0 mm 893 W/m2
14:20 31.3 °C 20.3 °C 1014.1 hPa West 8.0 km/h 11.3 km/h 52 % 0.0 mm 888 W/m2
14:25 31.1 °C 19.5 °C 1014.1 hPa WNW 8.0 km/h 11.3 km/h 50 % 0.0 mm 884 W/m2
14:30 31.6 °C 19.9 °C 1014.1 hPa SW 8.0 km/h 11.3 km/h 50 % 0.0 mm 882 W/m2
14:35 31.6 °C 19.6 °C 1014.1 hPa WSW 9.7 km/h 11.3 km/h 49 % 0.0 mm 877 W/m2
14:40 31.3 °C 20.2 °C 1014.1 hPa WSW 12.9 km/h 14.5 km/h 52 % 0.0 mm 874 W/m2
14:45 30.9 °C 19.3 °C 1014.1 hPa West 6.4 km/h 16.1 km/h 50 % 0.0 mm 870 W/m2
14:50 30.1 °C 19.4 °C 1014.1 hPa West 9.7 km/h 17.7 km/h 53 % 0.0 mm 861 W/m2
14:55 30.4 °C 19.4 °C 1014.4 hPa West 16.1 km/h 19.3 km/h 52 % 0.0 mm 860 W/m2
15:00 28.9 °C 19.0 °C 1014.4 hPa WNW 9.7 km/h 19.3 km/h 55 % 0.0 mm 860 W/m2
15:05 29.0 °C 19.9 °C 1014.1 hPa WNW 6.4 km/h 19.3 km/h 58 % 0.0 mm 854 W/m2
15:10 29.5 °C 19.8 °C 1014.1 hPa West 9.7 km/h 16.1 km/h 56 % 0.0 mm 854 W/m2
15:15 29.7 °C 19.1 °C 1014.4 hPa WNW 9.7 km/h 14.5 km/h 53 % 0.0 mm 853 W/m2
15:20 30.0 °C 19.7 °C 1014.4 hPa West 9.7 km/h 19.3 km/h 54 % 0.0 mm 847 W/m2
15:25 28.3 °C 18.4 °C 1014.1 hPa WSW 6.4 km/h 19.3 km/h 55 % 0.0 mm 842 W/m2
15:30 28.3 °C 19.3 °C 1014.1 hPa WNW 6.4 km/h 16.1 km/h 58 % 0.0 mm 831 W/m2
15:35 28.8 °C 19.2 °C 1014.1 hPa SW 4.8 km/h 16.1 km/h 56 % 0.0 mm 831 W/m2
15:40 28.6 °C 18.9 °C 1014.1 hPa West 3.2 km/h 14.5 km/h 56 % 0.0 mm 826 W/m2
15:45 28.6 °C 18.6 °C 1014.1 hPa West 8.0 km/h 16.1 km/h 55 % 0.0 mm 817 W/m2
15:50 28.5 °C 18.9 °C 1014.1 hPa West 11.3 km/h 17.7 km/h 56 % 0.0 mm 814 W/m2
15:55 28.1 °C 19.6 °C 1014.1 hPa WNW 8.0 km/h 17.7 km/h 60 % 0.0 mm 805 W/m2
16:00 28.8 °C 19.5 °C 1014.1 hPa WNW 8.0 km/h 14.5 km/h 57 % 0.0 mm 784 W/m2
16:05 28.8 °C 19.7 °C 1014.1 hPa West 4.8 km/h 14.5 km/h 58 % 0.0 mm 789 W/m2
16:10 29.1 °C 19.1 °C 1014.1 hPa WNW 3.2 km/h 14.5 km/h 55 % 0.0 mm 779 W/m2
16:15 28.8 °C 19.1 °C 1014.1 hPa WSW 4.8 km/h 11.3 km/h 56 % 0.0 mm 773 W/m2
16:20 28.9 °C 18.6 °C 1014.1 hPa West 11.3 km/h 14.5 km/h 54 % 0.0 mm 761 W/m2
16:25 28.2 °C 19.2 °C 1014.1 hPa WSW 4.8 km/h 16.1 km/h 58 % 0.0 mm 752 W/m2
16:30 28.7 °C 19.0 °C 1013.8 hPa WSW 3.2 km/h 16.1 km/h 56 % 0.0 mm 745 W/m2
16:35 28.7 °C 19.4 °C 1013.8 hPa West 8.0 km/h 14.5 km/h 57 % 0.0 mm 738 W/m2
16:40 29.3 °C 19.0 °C 1013.8 hPa WSW 9.7 km/h 14.5 km/h 54 % 0.0 mm 728 W/m2
16:45 28.9 °C 19.6 °C 1014.1 hPa WSW 8.0 km/h 16.1 km/h 57 % 0.0 mm 719 W/m2
16:50 28.6 °C 19.2 °C 1014.1 hPa WNW 1.6 km/h 16.1 km/h 57 % 0.0 mm 708 W/m2
16:55 28.1 °C 18.7 °C 1014.1 hPa West 8.0 km/h 16.1 km/h 57 % 0.0 mm 698 W/m2
17:00 27.7 °C 19.0 °C 1013.8 hPa WSW 9.7 km/h 16.1 km/h 59 % 0.0 mm 689 W/m2
17:05 27.6 °C 18.8 °C 1013.8 hPa West 8.0 km/h 14.5 km/h 59 % 0.0 mm 679 W/m2
17:10 27.9 °C 19.2 °C 1013.8 hPa West 4.8 km/h 12.9 km/h 59 % 0.0 mm 664 W/m2
17:15 28.1 °C 18.7 °C 1013.8 hPa West 3.2 km/h 12.9 km/h 57 % 0.0 mm 649 W/m2
17:20 28.4 °C 19.0 °C 1013.8 hPa West 11.3 km/h 12.9 km/h 57 % 0.0 mm 642 W/m2
17:25 28.3 °C 19.0 °C 1013.8 hPa WSW 6.4 km/h 12.9 km/h 57 % 0.0 mm 635 W/m2
17:30 28.8 °C 18.9 °C 1013.8 hPa West 6.4 km/h 12.9 km/h 55 % 0.0 mm 621 W/m2
17:35 28.2 °C 19.2 °C 1013.8 hPa WSW 4.8 km/h 12.9 km/h 58 % 0.0 mm 613 W/m2
17:40 27.6 °C 18.9 °C 1013.8 hPa WSW 6.4 km/h 17.7 km/h 59 % 0.0 mm 599 W/m2
17:45 27.4 °C 18.7 °C 1013.4 hPa West 8.0 km/h 17.7 km/h 59 % 0.0 mm 585 W/m2
17:50 27.3 °C 19.4 °C 1013.4 hPa West 6.4 km/h 17.7 km/h 62 % 0.0 mm 577 W/m2
17:55 27.1 °C 18.7 °C 1013.4 hPa WSW 4.8 km/h 19.3 km/h 60 % 0.0 mm 564 W/m2
18:00 27.1 °C 18.9 °C 1013.4 hPa West 8.0 km/h 19.3 km/h 61 % 0.0 mm 554 W/m2
18:05 27.3 °C 18.9 °C 1013.4 hPa West 1.6 km/h 14.5 km/h 60 % 0.0 mm 536 W/m2
18:10 27.3 °C 18.6 °C 1013.4 hPa WSW 8.0 km/h 14.5 km/h 59 % 0.0 mm 524 W/m2
18:15 27.1 °C 18.4 °C 1013.4 hPa West 9.7 km/h 20.9 km/h 59 % 0.0 mm 508 W/m2
18:20 26.8 °C 18.7 °C 1013.4 hPa SW 4.8 km/h 20.9 km/h 61 % 0.0 mm 494 W/m2
18:25 26.8 °C 18.6 °C 1013.4 hPa West 3.2 km/h 19.3 km/h 61 % 0.0 mm 482 W/m2
18:30 27.1 °C 19.1 °C 1013.4 hPa West 6.4 km/h 19.3 km/h 62 % 0.0 mm 468 W/m2
18:35 26.9 °C 18.8 °C 1013.4 hPa WSW 12.9 km/h 16.1 km/h 61 % 0.0 mm 455 W/m2
18:40 26.9 °C 19.5 °C 1013.4 hPa NW 9.7 km/h 16.1 km/h 64 % 0.0 mm 443 W/m2
18:45 26.7 °C 18.8 °C 1013.4 hPa West 11.3 km/h 17.7 km/h 62 % 0.0 mm 431 W/m2
18:50 26.7 °C 18.8 °C 1013.4 hPa West 11.3 km/h 17.7 km/h 62 % 0.0 mm 415 W/m2
18:55 26.7 °C 18.8 °C 1013.4 hPa WSW 9.7 km/h 14.5 km/h 62 % 0.0 mm 399 W/m2
19:00 26.6 °C 18.9 °C 1013.4 hPa WSW 6.4 km/h 14.5 km/h 63 % 0.0 mm 385 W/m2
19:05 26.9 °C 19.2 °C 1013.4 hPa WSW 1.6 km/h 12.9 km/h 63 % 0.0 mm 369 W/m2
19:10 26.8 °C 19.1 °C 1013.4 hPa WSW 8.0 km/h 12.9 km/h 63 % 0.0 mm 355 W/m2
19:15 27.1 °C 19.4 °C 1013.4 hPa West 8.0 km/h 12.9 km/h 63 % 0.0 mm 343 W/m2
19:20 27.4 °C 19.8 °C 1013.4 hPa WSW 4.8 km/h 12.9 km/h 63 % 0.0 mm 329 W/m2
19:25 27.3 °C 19.1 °C 1013.4 hPa West 1.6 km/h 11.3 km/h 61 % 0.0 mm 313 W/m2
19:30 27.2 °C 19.0 °C 1013.4 hPa West 9.7 km/h 12.9 km/h 61 % 0.0 mm 299 W/m2
19:35 27.1 °C 19.4 °C 1013.4 hPa SW 8.0 km/h 12.9 km/h 63 % 0.0 mm 278 W/m2
19:40 26.8 °C 19.4 °C 1013.4 hPa West 8.0 km/h 12.9 km/h 64 % 0.0 mm 258 W/m2
19:45 26.7 °C 19.8 °C 1013.4 hPa WSW 3.2 km/h 12.9 km/h 66 % 0.0 mm 232 W/m2
19:50 26.9 °C 19.3 °C 1013.4 hPa West 3.2 km/h 9.7 km/h 63 % 0.0 mm 211 W/m2
19:55 27.0 °C 19.6 °C 1013.4 hPa WSW 6.4 km/h 9.7 km/h 64 % 0.0 mm 193 W/m2
20:00 26.8 °C 19.4 °C 1013.4 hPa WSW 6.4 km/h 11.3 km/h 64 % 0.0 mm 185 W/m2
20:10 26.5 °C 19.6 °C 1013.4 hPa WSW 1.6 km/h 8.0 km/h 66 % 0.0 mm 171 W/m2
20:15 26.4 °C 19.5 °C 1013.4 hPa SW 4.8 km/h 8.0 km/h 66 % 0.0 mm 156 W/m2
20:20 26.3 °C 19.4 °C 1013.4 hPa Calm   9.7 km/h 66 % 0.0 mm 135 W/m2
20:25 26.2 °C 19.6 °C 1013.4 hPa SW 6.4 km/h 9.7 km/h 67 % 0.0 mm 120 W/m2
20:30 26.2 °C 19.6 °C 1013.4 hPa SW 3.2 km/h 8.0 km/h 67 % 0.0 mm 109 W/m2
20:35 25.8 °C 19.5 °C 1013.4 hPa SW 1.6 km/h 8.0 km/h 68 % 0.0 mm 93 W/m2
20:45 25.4 °C 19.6 °C 1013.4 hPa SW 3.2 km/h 4.8 km/h 70 % 0.0 mm 44 W/m2
20:50 25.4 °C 19.5 °C 1013.4 hPa SW 1.6 km/h 4.8 km/h 70 % 0.0 mm 42 W/m2
20:55 25.3 °C 19.5 °C 1013.4 hPa SW 1.6 km/h 4.8 km/h 70 % 0.0 mm 46 W/m2
21:00 25.3 °C 19.7 °C 1013.4 hPa SW 3.2 km/h 6.4 km/h 71 % 0.0 mm 37 W/m2
21:05 25.4 °C 19.6 °C 1013.4 hPa SW 1.6 km/h 6.4 km/h 70 % 0.0 mm 33 W/m2
21:10 25.3 °C 19.7 °C 1013.4 hPa SW 1.6 km/h 4.8 km/h 71 % 0.0 mm 30 W/m2
21:15 25.2 °C 19.5 °C 1013.4 hPa Calm   3.2 km/h 71 % 0.0 mm 28 W/m2
21:20 24.8 °C 19.7 °C 1013.4 hPa SW 1.6 km/h 3.2 km/h 73 % 0.0 mm 25 W/m2
21:25 24.6 °C 19.7 °C 1013.4 hPa Calm   1.6 km/h 74 % 0.0 mm 23 W/m2
21:30 24.6 °C 19.8 °C 1013.4 hPa SW 1.6 km/h 3.2 km/h 75 % 0.0 mm 21 W/m2
21:35 24.3 °C 19.6 °C 1013.4 hPa Calm   3.2 km/h 75 % 0.0 mm 19 W/m2
21:40 24.1 °C 19.6 °C 1013.4 hPa Calm   3.2 km/h 76 % 0.0 mm 16 W/m2
21:45 23.8 °C 19.6 °C 1013.4 hPa Calm   1.6 km/h 77 % 0.0 mm 12 W/m2
21:50 23.5 °C 19.6 °C 1013.4 hPa Calm   1.6 km/h 79 % 0.0 mm 9 W/m2
21:55 23.2 °C 19.6 °C 1013.8 hPa Calm   1.6 km/h 80 % 0.0 mm 7 W/m2
22:00 23.0 °C 19.6 °C 1013.8 hPa Calm   1.6 km/h 81 % 0.0 mm 5 W/m2
22:05 22.9 °C 19.3 °C 1013.8 hPa SW 1.6 km/h 1.6 km/h 80 % 0.0 mm 0 W/m2
22:10 23.0 °C 19.4 °C 1013.8 hPa Calm   3.2 km/h 80 % 0.0 mm 0 W/m2
22:15 23.1 °C 19.2 °C 1013.8 hPa Calm   3.2 km/h 79 % 0.0 mm 0 W/m2
22:25 22.6 °C 19.1 °C 1013.8 hPa Calm   1.6 km/h 81 % 0.0 mm 0 W/m2
22:30 22.3 °C 19.1 °C 1014.1 hPa Calm   1.6 km/h 82 % 0.0 mm 0 W/m2
22:35 22.0 °C 19.2 °C 1014.1 hPa Calm     84 % 0.0 mm 0 W/m2
22:40 21.8 °C 19.0 °C 1014.1 hPa Calm     84 % 0.0 mm 0 W/m2
22:45 21.6 °C 19.0 °C 1014.1 hPa Calm     85 % 0.0 mm 0 W/m2
22:50 21.5 °C 18.9 °C 1014.1 hPa Calm     85 % 0.0 mm 0 W/m2
22:55 21.4 °C 19.0 °C 1014.1 hPa Calm     86 % 0.0 mm 0 W/m2
23:00 21.6 °C 19.1 °C 1014.1 hPa Calm     86 % 0.0 mm 0 W/m2
23:05 21.5 °C 18.9 °C 1014.4 hPa Calm     85 % 0.0 mm 0 W/m2
23:10 21.2 °C 18.9 °C 1014.4 hPa Calm   1.6 km/h 87 % 0.0 mm 0 W/m2
23:15 21.1 °C 18.8 °C 1014.4 hPa Calm   1.6 km/h 87 % 0.0 mm 0 W/m2
23:20 21.1 °C 19.0 °C 1014.4 hPa SW 6.4 km/h 6.4 km/h 88 % 0.0 mm 0 W/m2
23:30 21.5 °C 19.1 °C 1014.4 hPa Calm   6.4 km/h 86 % 0.0 mm 0 W/m2
23:35 21.4 °C 19.0 °C 1014.4 hPa Calm   1.6 km/h 86 % 0.0 mm 0 W/m2
23:40 21.1 °C 18.6 °C 1014.4 hPa Calm     86 % 0.0 mm 0 W/m2
23:45 20.9 °C 18.8 °C 1014.4 hPa Calm     88 % 0.0 mm 0 W/m2
23:50 20.8 °C 18.7 °C 1014.4 hPa Calm     88 % 0.0 mm 0 W/m2
23:55 20.8 °C 18.8 °C 1014.1 hPa Calm     88 % 0.0 mm 0 W/m2
Avec l'autorisation de Weather Underground - 1.75 mb